Regional Weather Roundup
Issued by NWS Midland/Odessa, TX

Home | Current Version | Previous Version | Text Only | Print | Product List | Glossary On
Versions: 1 2 3 4 5 6 7 8 9 10 11 12 13 14 15 16 17 18 19 20 21 22 23 24 25 26 27 28 29 30 31 32 33 34 35 36 37 38 39 40 41 42 43 44 45 46 47 48 49 50
000
ASUS44 KMAF 241610
RWRMAF
MIDLAND AREA WEATHER ROUNDUP
NATIONAL WEATHER SERVICE MIDLAND TX
1100 AM CDT SAT JUN 24 2017

...IN SOUTHWEST TEXAS AND SOUTHEAST NEW MEXICO...

CITY           SKY/WX    TMP DP  RH WIND       PRES   REMARKS
ALPINE         SUNNY     75  58  55 NE12      30.30R
ANDREWS          N/A     70  60  69 E17G23    30.26S
ARTESIA        CLOUDY    73  54  49 SE13      30.27R
BIG SPRING     CLOUDY    70  62  77 NE17      30.26R
CARLSBAD       SUNNY     74  55  51 E9        30.25R
DRYDEN           N/A     85  60  42 NE16G25   30.12R
FORT STOCKTON  SUNNY     80  59  48 E21       30.19R
GUAD PASS      SUNNY     68  52  56 E35G48    30.28R
HOBBS          CLOUDY    66  57  72 NE14G23   30.29R
MARFA          SUNNY     77  59  53 NE21      30.25R
MIDLAND AIRPK  CLOUDY    71  62  73 NE20      30.26R
MIDLAND INTL   CLOUDY    75  61  61 E18       30.24R
ODESSA         CLOUDY    72  62  71 E21G29    30.25R
PECOS          SUNNY     78  58  49 E10G17    30.20R
PRESIDIO       FAIR      89  60  37 NE5       30.08R
SEMINOLE       CLOUDY    68  59  72 E9G16     30.28S
SNYDER         CLOUDY    67  63  88 E9        30.25R
WINK           SUNNY     77  59  53 MISG      30.19R
$$
...OTHER STATIONS IN TEXAS...

CITY           SKY/WX    TMP DP  RH WIND       PRES   REMARKS
ABILENE        CLOUDY    69  68  96 E18G26    30.16F
AMARILLO       CLOUDY    63  54  72 E13       30.32R
AUSTIN         CLOUDY    78  69  73 NW8       30.07R
BROWNSVILLE    PTSUNNY   89  76  65 SE16      29.95S HX 100
CORPUS CHRISTI PTSUNNY   91  77  63 SE14      29.98R HX 104
DALLAS FTW     LGT RAIN  71  67  87 E7        30.15S
DEL RIO        CLOUDY    84  76  76 NE8       30.04R
EL PASO        MOSUNNY   87  55  33 E17G23    30.12S
HOUSTON INT    HVY RAIN  75  73  93 SE13      30.08R FOG
LUBBOCK        CLOUDY    68  56  65 E14       30.28R
SAN ANGELO     NOT AVBL
SAN ANTONIO    CLOUDY    85  72  65 N12       30.07R
WACO           LGT RAIN  72  71  97 N9        30.15S
WICHITA FALLS  NOT AVBL
$$
...OTHER LOCATIONS IN NEW MEXICO...

CITY           SKY/WX    TMP DP  RH WIND       PRES   REMARKS
ALAMOGORDO     SUNNY     84  55  37 NW6       30.15F
ALBUQUERQUE    CLOUDY    75  52  44 E20       30.26F
CANNON AFB     CLOUDY    63  55  74 SE17      30.34R
CLOVIS         CLOUDY    63  54  72 SE16      30.34R
HOLLOMAN AFB   SUNNY     85  56  37 SW6       30.15F
ROSWELL        CLOUDY    72  52  49 NE7       30.27R
RUIDOSO        CLOUDY    57  48  72 SE16      30.42S
SANTA FE       SUNNY     68  53  58 SE22      30.34S
TRUTH OR CONSE SUNNY     83  56  39 NE10G17   30.18S
TUCUMCARI      CLOUDY    68  53  58 E9        30.29S
$$




USA.gov is the U.S. government's official web portal to all federal, state and local government web resources and services.